Simultaneous Nadir Overpasses (SNOs) Predictions

Prediction of SNOs between GOES-14 and AQUA Satellite Orbit:

Table of predicted SNOs for the next 14.0 days since TLE Epoch: 7/23/2022
Index Date Time (GOES-14) GOES-14 Lat,Lon AQUA Lat,Lon Distance(km) Time Diff (sec)
1 07/23/2022 08:31:53 -0.33,-104.46 -0.52,-103.54 104.78 80
2 07/23/2022 20:53:12 0.35,-104.74 -0.50,-108.72 452.28 80
3 07/25/2022 08:19:15 -0.33,-104.45 -1.16,-100.46 453.00 80
4 07/25/2022 20:40:34 0.35,-104.73 0.14,-105.64 103.76 80
5 07/27/2022 20:30:36 0.36,-104.73 0.80,-102.57 244.75 80
6 07/28/2022 08:51:44 -0.38,-104.45 0.31,-107.69 368.33 80
7 07/30/2022 08:39:06 -0.38,-104.44 -0.36,-104.62 19.77 80
8 08/01/2022 08:23:47 -0.37,-104.43 -0.99,-101.54 329.32 80
9 08/01/2022 20:45:06 0.40,-104.70 -0.00,-106.72 229.41 80
10 08/03/2022 20:35:07 0.40,-104.69 0.65,-103.64 120.10 80
11 08/04/2022 08:56:14 -0.42,-104.44 0.52,-108.75 490.20 80
12 08/05/2022 20:22:27 0.40,-104.69 1.25,-100.55 469.38 80
